| time (UTC) | temp F | wind direction | speed MPH | gust MPH | rain 1hr in | rain 24hr in | rain mn in | humidity % | barometer mb |
| 20260902113035 | 58 | 169 | 3.0 | 5.0 | 0.00 | 0.00 | 0.00 | 73 | 1011.9 |
| 20260902111535 | 58 | 209 | 1.0 | 7.0 | 0.00 | 0.00 | 0.00 | 73 | 1011.8 |
| 20260902110035 | 59 | 207 | 1.0 | 4.0 | 0.00 | 0.00 | 0.00 | 73 | 1011.9 |
| 20260902104536 | 59 | 230 | 1.0 | 4.0 | 0.00 | 0.00 | 0.00 | 72 | 1012.1 |
| 20260902101530 | 60 | 209 | 2.0 | 6.0 | 0.00 | 0.00 | 0.00 | 72 | 1012.2 |
| 20260902093141 | 59 | 221 | 2.0 | 6.0 | 0.00 | 0.00 | 0.00 | 73 | 1012.2 |
| 20260902091537 | 59 | 223 | 1.0 | 3.0 | 0.00 | 0.00 | 0.00 | 73 | 1012.4 |
| 20260902090037 | 60 | 211 | 1.0 | 3.0 | 0.00 | 0.00 | 0.00 | 72 | 1012.4 |
| 20260902084654 | 60 | 238 | 2.0 | 6.0 | 0.00 | 0.00 | 0.00 | 72 | 1012.4 |
| 20260902083034 | 60 | 217 | 2.0 | 6.0 | 0.00 | 0.00 | 0.00 | 71 | 1012.4 |
| 20260902081531 | 61 | 255 | 2.0 | 5.0 | 0.00 | 0.00 | 0.00 | 70 | 1012.4 |
| 20260902080032 | 61 | 243 | 3.0 | 10.0 | 0.00 | 0.00 | 0.00 | 70 | 1012.5 |
| 20260902074645 | 61 | 252 | 2.0 | 7.0 | 0.00 | 0.00 | 0.00 | 69 | 1012.5 |
| 20260902070030 | 63 | 255 | 4.0 | 17.0 | 0.00 | 0.00 | 0.00 | 67 | 1012.6 |
| 20260902064532 | 63 | 252 | 3.0 | 7.0 | 0.00 | 0.00 | 0.00 | 66 | 1012.9 |
| 20260902063035 | 63 | 253 | 4.0 | 13.0 | 0.00 | 0.00 | 0.00 | 65 | 1012.7 |
| 20260902060030 | 64 | 253 | 3.0 | 7.0 | 0.00 | 0.00 | 0.00 | 64 | 1012.9 |
| 20260902054529 | 64 | 243 | 4.0 | 14.0 | 0.00 | 0.00 | 0.00 | 64 | 1012.6 |
| 20260902050034 | 65 | 256 | 4.0 | 12.0 | 0.00 | 0.00 | 0.00 | 61 | 1012.7 |
| 20260902044535 | 65 | 269 | 5.0 | 17.0 | 0.00 | 0.00 | 0.00 | 61 | 1012.3 |
| 20260902043035 | 65 | 267 | 4.0 | 12.0 | 0.00 | 0.00 | 0.00 | 61 | 1012.2 |
| 20260902040034 | 65 | 276 | 4.0 | 10.0 | 0.00 | 0.00 | 0.00 | 60 | 1011.8 |
| 20260902034534 | 65 | 267 | 3.0 | 9.0 | 0.00 | 0.00 | 0.00 | 61 | 1011.7 |
| 20260902033029 | 65 | 288 | 5.0 | 19.0 | 0.00 | 0.00 | 0.00 | 62 | 1011.6 |
| 20260902031532 | 65 | 296 | 6.0 | 19.0 | 0.00 | 0.00 | 0.00 | 61 | 1011.5 |
| 20260902024532 | 66 | 271 | 3.0 | 8.0 | 0.00 | 0.00 | 0.00 | 59 | 1011.3 |
| 20260902023031 | 66 | 258 | 3.0 | 10.0 | 0.00 | 0.00 | 0.00 | 59 | 1011.2 |
| 20260902020030 | 67 | 293 | 5.0 | 14.0 | 0.00 | 0.00 | 0.00 | 56 | 1011.1 |
| 20260902014534 | 68 | 274 | 6.0 | 18.0 | 0.00 | 0.00 | 0.00 | 55 | 1011.1 |
| 20260902013038 | 69 | 255 | 4.0 | 10.0 | 0.00 | 0.00 | 0.00 | 54 | 1010.8 |
| 20260902011531 | 69 | 261 | 5.0 | 14.0 | 0.00 | 0.00 | 0.00 | 53 | 1010.9 |
| 20260902010108 | 69 | 259 | 4.0 | 17.0 | 0.00 | 0.00 | 0.00 | 54 | 1010.8 |
| 20260902004538 | 69 | 273 | 4.0 | 21.0 | 0.00 | 0.00 | 0.00 | 54 | 1010.6 |
| 20260902003142 | 69 | 271 | 6.0 | 15.0 | 0.00 | 0.00 | 0.00 | 54 | 1010.5 |
| 20260902001537 | 68 | 278 | 5.0 | 15.0 | 0.00 | 0.00 | 0.00 | 55 | 1010.6 |
| 20260901234534 | 69 | 269 | 5.0 | 12.0 | 0.00 | 0.00 | 0.00 | 54 | 1010.7 |
| 20260901231604 | 70 | 257 | 4.0 | 10.0 | 0.00 | 0.00 | 0.00 | 53 | 1010.7 |
| 20260901230030 | 70 | 290 | 6.0 | 15.0 | 0.00 | 0.00 | 0.00 | 53 | 1010.6 |
| 20260901224643 | 70 | 279 | 5.0 | 18.0 | 0.00 | 0.00 | 0.00 | 52 | 1010.5 |
| 20260901223035 | 71 | 282 | 5.0 | 17.0 | 0.00 | 0.00 | 0.00 | 51 | 1010.5 |
| 20260901221535 | 72 | 279 | 5.0 | 17.0 | 0.00 | 0.00 | 0.00 | 49 | 1010.5 |
| 20260901220033 | 72 | 272 | 5.0 | 13.0 | 0.00 | 0.00 | 0.00 | 49 | 1010.4 |
| 20260901214536 | 73 | 251 | 5.0 | 14.0 | 0.00 | 0.00 | 0.00 | 48 | 1010.3 |
| 20260901213108 | 73 | 259 | 4.0 | 12.0 | 0.00 | 0.00 | 0.00 | 48 | 1010.4 |
| 20260901211532 | 73 | 262 | 4.0 | 13.0 | 0.00 | 0.00 | 0.00 | 49 | 1010.4 |
| 20260901210030 | 72 | 255 | 5.0 | 15.0 | 0.00 | 0.00 | 0.00 | 50 | 1010.5 |
| 20260901203030 | 72 | 258 | 5.0 | 16.0 | 0.00 | 0.00 | 0.00 | 50 | 1010.6 |
| 20260901201530 | 72 | 255 | 5.0 | 18.0 | 0.00 | 0.00 | 0.00 | 50 | 1010.6 |
| 20260901200037 | 72 | 263 | 4.0 | 13.0 | 0.00 | 0.00 | 0.00 | 50 | 1010.7 |
| 20260901194537 | 72 | 270 | 4.0 | 14.0 | 0.00 | 0.00 | 0.00 | 50 | 1010.8 |
| 20260901193030 | 72 | 263 | 3.0 | 12.0 | 0.00 | 0.00 | 0.00 | 50 | 1011.2 |
| 20260901191532 | 71 | 270 | 3.0 | 10.0 | 0.00 | 0.00 | 0.00 | 51 | 1011.5 |
| 20260901190034 | 71 | 258 | 4.0 | 15.0 | 0.00 | 0.00 | 0.00 | 52 | 1011.6 |
| 20260901184535 | 70 | 262 | 3.0 | 12.0 | 0.00 | 0.00 | 0.00 | 54 | 1011.8 |
| 20260901181536 | 68 | 248 | 4.0 | 10.0 | 0.00 | 0.00 | 0.00 | 57 | 1011.9 |
| 20260901174531 | 66 | 249 | 4.0 | 11.0 | 0.00 | 0.00 | 0.00 | 61 | 1012.0 |
| 20260901173141 | 65 | 242 | 3.0 | 10.0 | 0.00 | 0.00 | 0.00 | 63 | 1012.1 |
| 20260901170105 | 64 | 260 | 3.0 | 7.0 | 0.00 | 0.00 | 0.00 | 65 | 1012.2 |
| 20260901164608 | 64 | 253 | 3.0 | 10.0 | 0.00 | 0.00 | 0.00 | 65 | 1012.2 |
| 20260901163033 | 63 | 254 | 2.0 | 7.0 | 0.00 | 0.00 | 0.00 | 67 | 1012.3 |
| 20260901160142 | 62 | 259 | 2.0 | 9.0 | 0.00 | 0.00 | 0.00 | 70 | 1012.1 |
| 20260901154534 | 61 | 245 | 3.0 | 10.0 | 0.00 | 0.00 | 0.00 | 71 | 1012.1 |
| 20260901153111 | 61 | 267 | 3.0 | 15.0 | 0.00 | 0.00 | 0.00 | 72 | 1012.1 |
| 20260901151535 | 61 | 244 | 3.0 | 12.0 | 0.00 | 0.00 | 0.00 | 72 | 1012.1 |
| 20260901150034 | 61 | 254 | 3.0 | 16.0 | 0.00 | 0.00 | 0.00 | 72 | 1011.9 |
| 20260901143030 | 61 | 260 | 3.0 | 8.0 | 0.00 | 0.00 | 0.00 | 71 | 1011.8 |
| 20260901141533 | 61 | 248 | 3.0 | 8.0 | 0.00 | 0.00 | 0.00 | 71 | 1011.6 |
| 20260901140038 | 61 | 265 | 3.0 | 8.0 | 0.00 | 0.00 | 0.00 | 72 | 1011.5 |
| 20260901134532 | 61 | 254 | 3.0 | 7.0 | 0.00 | 0.00 | 0.00 | 71 | 1011.4 |
| 20260901133029 | 62 | 246 | 3.0 | 11.0 | 0.00 | 0.00 | 0.00 | 70 | 1011.2 |
| 20260901131651 | 62 | 252 | 2.0 | 7.0 | 0.00 | 0.00 | 0.00 | 70 | 1011.0 |
| 20260901130031 | 62 | 246 | 3.0 | 8.0 | 0.00 | 0.00 | 0.00 | 69 | 1011.0 |
| 20260901124535 | 63 | 238 | 4.0 | 11.0 | 0.00 | 0.00 | 0.00 | 68 | 1010.8 |
| 20260901123031 | 63 | 243 | 3.0 | 7.0 | 0.00 | 0.00 | 0.00 | 67 | 1010.7 |
| 20260901121604 | 64 | 235 | 3.0 | 10.0 | 0.00 | 0.00 | 0.00 | 66 | 1010.7 |
| 20260901120029 | 64 | 239 | 4.0 | 12.0 | 0.00 | 0.00 | 0.00 | 65 | 1010.7 |
| 20260901114531 | 64 | 238 | 5.0 | 11.0 | 0.00 | 0.00 | 0.00 | 65 | 1010.8 |
| 20260901113131 | 64 | 248 | 4.0 | 11.0 | 0.00 | 0.00 | 0.00 | 64 | 1010.6 |